Location: Cucq
(50.4773°N, 1.6202°E)
Time: 05:34:21
(UTC+00:00)

DNEPR-1 R/B - Pass Details

Date: 07 August 2020
Orbit: 572 x 1350 km, 64.6° (Epoch: 19 September)

Event Time Altitude Azimuth Distance (km) Brightness Sun altitude
Rises 01:16:59 0° 318° (NW) 3,761 7.9 -21.0°
Reaches altitude 10° 01:19:50 10° 320° (NW) 2,680 7.2 -20.9°
Maximum altitude 01:26:00 78° 46° (NE) 830 4.2 -20.5°
Drops below altitude 10° 01:30:57 10° 134° (SE) 2,173 6.1 -20.2°
Enters shadow 01:31:09 - 134° (SE) 2,248 6.2 -20.2°
